| time (UTC) | temp F | wind direction | speed MPH | gust MPH | rain 1hr in | rain 24hr in | rain mn in | humidity % | barometer mb |
| 20260906035011 | 58 | 360 | 0.0 | 1.0 | 0.00 | 0.00 | 0.00 | 82 | 23.0 |
| 20260906034011 | 58 | 360 | 0.0 | 1.0 | 0.00 | 0.00 | 0.00 | 82 | 23.0 |
| 20260906033011 | 58 | 0 | 0.0 | 0.0 | 0.00 | 0.00 | 0.00 | 83 | 23.0 |
| 20260906032011 | 57 | 360 | 0.0 | 1.0 | 0.00 | 0.00 | 0.00 | 84 | 23.1 |
| 20260906031011 | 57 | 0 | 0.0 | 0.0 | 0.00 | 0.00 | 0.00 | 84 | 23.1 |
| 20260906030011 | 58 | 0 | 0.0 | 0.0 | 0.00 | 0.00 | 0.00 | 83 | 23.2 |
| 20260906025011 | 59 | 0 | 0.0 | 0.0 | 0.00 | 0.00 | 0.00 | 82 | 23.1 |
| 20260906024011 | 59 | 360 | 0.0 | 2.0 | 0.00 | 0.00 | 0.00 | 82 | 23.1 |
| 20260906023011 | 60 | 0 | 0.0 | 0.0 | 0.00 | 0.00 | 0.00 | 81 | 23.2 |
| 20260906022011 | 60 | 0 | 0.0 | 0.0 | 0.00 | 0.00 | 0.00 | 81 | 23.1 |
| 20260906021011 | 60 | 360 | 0.0 | 1.0 | 0.00 | 0.00 | 0.00 | 81 | 23.1 |
| 20260906020011 | 61 | 360 | 1.0 | 5.0 | 0.00 | 0.00 | 0.00 | 80 | 23.1 |
| 20260906015010 | 61 | 360 | 0.0 | 2.0 | 0.00 | 0.00 | 0.00 | 81 | 23.0 |
| 20260906014010 | 61 | 337 | 0.0 | 3.0 | 0.00 | 0.00 | 0.00 | 81 | 23.1 |
| 20260906013010 | 61 | 0 | 0.0 | 0.0 | 0.00 | 0.00 | 0.00 | 82 | 23.1 |
| 20260906012010 | 61 | 0 | 0.0 | 0.0 | 0.00 | 0.00 | 0.00 | 82 | 23.3 |
| 20260906011010 | 61 | 0 | 0.0 | 0.0 | 0.00 | 0.00 | 0.00 | 81 | 23.1 |
| 20260906010011 | 61 | 0 | 0.0 | 0.0 | 0.00 | 0.00 | 0.00 | 81 | 23.1 |
| 20260906005010 | 62 | 0 | 0.0 | 0.0 | 0.00 | 0.00 | 0.00 | 80 | 23.2 |
| 20260906004010 | 63 | 0 | 0.0 | 0.0 | 0.00 | 0.00 | 0.00 | 78 | 23.1 |
| 20260906003010 | 63 | 0 | 0.0 | 0.0 | 0.00 | 0.00 | 0.00 | 78 | 23.2 |
| 20260906002010 | 63 | 0 | 0.0 | 0.0 | 0.00 | 0.00 | 0.00 | 79 | 23.2 |
| 20260906001010 | 63 | 0 | 0.0 | 0.0 | 0.00 | 0.00 | 0.00 | 78 | 23.3 |
| 20260906000011 | 64 | 0 | 0.0 | 0.0 | 0.00 | 0.00 | 0.00 | 78 | 23.2 |
| 20260905235010 | 64 | 0 | 0.0 | 0.0 | 0.00 | 0.00 | 0.00 | 77 | 23.2 |
| 20260905234010 | 65 | 0 | 0.0 | 0.0 | 0.00 | 0.00 | 0.00 | 77 | 23.3 |
| 20260905233010 | 65 | 22 | 0.0 | 3.0 | 0.00 | 0.00 | 0.00 | 76 | 23.3 |
| 20260905232010 | 65 | 22 | 0.0 | 3.0 | 0.00 | 0.00 | 0.00 | 78 | 23.3 |
| 20260905231010 | 65 | 22 | 0.0 | 4.0 | 0.00 | 0.00 | 0.00 | 80 | 23.3 |
| 20260905230011 | 65 | 0 | 0.0 | 0.0 | 0.00 | 0.00 | 0.00 | 83 | 23.5 |
| 20260905224010 | 65 | 0 | 0.0 | 0.0 | 0.00 | 0.00 | 0.00 | 85 | 23.5 |
| 20260905222010 | 67 | 0 | 0.0 | 0.0 | 0.00 | 0.00 | 0.00 | 83 | 23.4 |
| 20260905221010 | 66 | 0 | 0.0 | 0.0 | 0.00 | 0.00 | 0.00 | 83 | 23.2 |
| 20260905220010 | 67 | 0 | 0.0 | 0.0 | 0.00 | 0.00 | 0.00 | 83 | 23.2 |
| 20260905215010 | 67 | 0 | 0.0 | 0.0 | 0.00 | 0.00 | 0.00 | 82 | 23.2 |
| 20260905214010 | 67 | 0 | 0.0 | 0.0 | 0.00 | 0.00 | 0.00 | 82 | 23.2 |
| 20260905213010 | 66 | 0 | 0.0 | 0.0 | 0.00 | 0.00 | 0.00 | 83 | 23.1 |
| 20260905212010 | 67 | 0 | 0.0 | 0.0 | 0.00 | 0.00 | 0.00 | 81 | 23.3 |
| 20260905211010 | 68 | 0 | 0.0 | 0.0 | 0.00 | 0.00 | 0.00 | 80 | 23.3 |
| 20260905210011 | 69 | 0 | 0.0 | 0.0 | 0.00 | 0.00 | 0.00 | 78 | 23.3 |
| 20260905205010 | 69 | 0 | 0.0 | 0.0 | 0.00 | 0.00 | 0.00 | 78 | 23.3 |
| 20260905201010 | 71 | 45 | 1.0 | 3.0 | 0.00 | 0.00 | 0.00 | 74 | 23.2 |
| 20260905200011 | 72 | 45 | 2.0 | 4.0 | 0.00 | 0.00 | 0.00 | 74 | 23.0 |
| 20260905195010 | 72 | 22 | 2.0 | 4.0 | 0.00 | 0.00 | 0.00 | 74 | 22.9 |
| 20260905194010 | 72 | 22 | 1.0 | 3.0 | 0.00 | 0.00 | 0.00 | 73 | 23.0 |
| 20260905193010 | 72 | 0 | 0.0 | 0.0 | 0.00 | 0.00 | 0.00 | 74 | 22.9 |
| 20260905192010 | 71 | 0 | 0.0 | 0.0 | 0.00 | 0.00 | 0.00 | 75 | 22.9 |
| 20260905191010 | 72 | 0 | 0.0 | 0.0 | 0.00 | 0.00 | 0.00 | 72 | 22.9 |
| 20260905190011 | 72 | 0 | 0.0 | 0.0 | 0.00 | 0.00 | 0.00 | 72 | 22.9 |
| 20260905185010 | 73 | 0 | 0.0 | 0.0 | 0.00 | 0.00 | 0.00 | 71 | 22.9 |
| 20260905183010 | 75 | 0 | 0.0 | 0.0 | 0.00 | 0.00 | 0.00 | 68 | 22.6 |
| 20260905181011 | 76 | 360 | 1.0 | 5.0 | 0.00 | 0.00 | 0.00 | 66 | 22.4 |
| 20260905180010 | 76 | 45 | 2.0 | 5.0 | 0.00 | 0.00 | 0.00 | 65 | 22.4 |
| 20260905175010 | 77 | 45 | 1.0 | 4.0 | 0.00 | 0.00 | 0.00 | 64 | 22.5 |
| 20260905174010 | 78 | 45 | 2.0 | 6.0 | 0.00 | 0.00 | 0.00 | 64 | 22.4 |
| 20260905173010 | 78 | 45 | 3.0 | 6.0 | 0.00 | 0.00 | 0.00 | 63 | 22.4 |
| 20260905172010 | 78 | 45 | 3.0 | 6.0 | 0.00 | 0.00 | 0.00 | 63 | 22.3 |
| 20260905171010 | 78 | 45 | 2.0 | 8.0 | 0.00 | 0.00 | 0.00 | 62 | 22.3 |
| 20260905170013 | 79 | 45 | 2.0 | 5.0 | 0.00 | 0.00 | 0.00 | 62 | 22.3 |
| 20260905164010 | 80 | 45 | 2.0 | 5.0 | 0.00 | 0.00 | 0.00 | 60 | 22.3 |
| 20260905163010 | 80 | 360 | 2.0 | 5.0 | 0.00 | 0.00 | 0.00 | 60 | 22.3 |
| 20260905162010 | 80 | 45 | 3.0 | 5.0 | 0.00 | 0.00 | 0.00 | 59 | 22.2 |
| 20260905161010 | 81 | 45 | 3.0 | 6.0 | 0.00 | 0.00 | 0.00 | 59 | 22.1 |
| 20260905160010 | 81 | 45 | 3.0 | 9.0 | 0.00 | 0.00 | 0.00 | 58 | 22.1 |
| 20260905155010 | 82 | 22 | 2.0 | 5.0 | 0.00 | 0.00 | 0.00 | 58 | 22.1 |
| 20260905154010 | 81 | 45 | 3.0 | 7.0 | 0.00 | 0.00 | 0.00 | 58 | 22.0 |
| 20260905153010 | 82 | 45 | 3.0 | 9.0 | 0.00 | 0.00 | 0.00 | 58 | 22.1 |
| 20260905152010 | 83 | 45 | 3.0 | 8.0 | 0.00 | 0.00 | 0.00 | 56 | 22.2 |
| 20260905151013 | 83 | 22 | 2.0 | 8.0 | 0.00 | 0.00 | 0.00 | 56 | 22.1 |
| 20260905150010 | 83 | 22 | 4.0 | 10.0 | 0.00 | 0.00 | 0.00 | 56 | 22.0 |
| 20260905145010 | 83 | 22 | 2.0 | 8.0 | 0.00 | 0.00 | 0.00 | 55 | 22.1 |
| 20260905143011 | 83 | 45 | 3.0 | 10.0 | 0.00 | 0.00 | 0.00 | 56 | 22.1 |
| 20260905142010 | 83 | 45 | 4.0 | 10.0 | 0.00 | 0.00 | 0.00 | 56 | 22.1 |
| 20260905141010 | 85 | 337 | 2.0 | 5.0 | 0.00 | 0.00 | 0.00 | 55 | 22.1 |
| 20260905140010 | 84 | 270 | 3.0 | 6.0 | 0.00 | 0.00 | 0.00 | 53 | 22.1 |
| 20260905134010 | 85 | 270 | 2.0 | 7.0 | 0.00 | 0.00 | 0.00 | 51 | 22.1 |
| 20260905133010 | 84 | 270 | 1.0 | 4.0 | 0.00 | 0.00 | 0.00 | 53 | 22.2 |
| 20260905132010 | 82 | 360 | 1.0 | 4.0 | 0.00 | 0.00 | 0.00 | 54 | 22.4 |
| 20260905131010 | 81 | 360 | 1.0 | 3.0 | 0.00 | 0.00 | 0.00 | 55 | 22.4 |
| 20260905130010 | 82 | 360 | 0.0 | 2.0 | 0.00 | 0.00 | 0.00 | 53 | 22.3 |
| 20260905124010 | 86 | 360 | 1.0 | 8.0 | 0.00 | 0.00 | 0.00 | 48 | 22.1 |
| 20260905123010 | 83 | 225 | 3.0 | 11.0 | 0.00 | 0.00 | 0.00 | 50 | 22.1 |
| 20260905122010 | 84 | 270 | 1.0 | 6.0 | 0.00 | 0.00 | 0.00 | 50 | 22.1 |
| 20260905120010 | 83 | 225 | 1.0 | 9.0 | 0.00 | 0.00 | 0.00 | 53 | 22.2 |
| 20260905114010 | 82 | 45 | 1.0 | 4.0 | 0.00 | 0.00 | 0.00 | 52 | 22.2 |
| 20260905113010 | 82 | 292 | 0.0 | 3.0 | 0.00 | 0.00 | 0.00 | 54 | 22.4 |
| 20260905112011 | 82 | 292 | 0.0 | 3.0 | 0.00 | 0.00 | 0.00 | 55 | 22.4 |
| 20260905111011 | 82 | 270 | 1.0 | 4.0 | 0.00 | 0.00 | 0.00 | 55 | 22.4 |
| 20260905110010 | 83 | 247 | 1.0 | 6.0 | 0.00 | 0.00 | 0.00 | 55 | 22.5 |
| 20260905105010 | 81 | 292 | 1.0 | 4.0 | 0.00 | 0.00 | 0.00 | 57 | 22.5 |
| 20260905104009 | 82 | 270 | 2.0 | 6.0 | 0.00 | 0.00 | 0.00 | 57 | 22.5 |
| 20260905103010 | 80 | 225 | 3.0 | 7.0 | 0.00 | 0.00 | 0.00 | 59 | 22.5 |
| 20260905102009 | 80 | 225 | 2.0 | 8.0 | 0.00 | 0.00 | 0.00 | 59 | 22.5 |
| 20260905100010 | 80 | 135 | 2.0 | 9.0 | 0.00 | 0.00 | 0.00 | 60 | 22.7 |
| 20260905095010 | 80 | 270 | 3.0 | 7.0 | 0.00 | 0.00 | 0.00 | 58 | 22.7 |
| 20260905093009 | 79 | 225 | 4.0 | 8.0 | 0.00 | 0.00 | 0.00 | 60 | 22.6 |
| 20260905092009 | 79 | 247 | 2.0 | 5.0 | 0.00 | 0.00 | 0.00 | 60 | 22.5 |
| 20260905091010 | 79 | 270 | 2.0 | 8.0 | 0.00 | 0.00 | 0.00 | 61 | 22.6 |
| 20260905090010 | 79 | 337 | 1.0 | 4.0 | 0.00 | 0.00 | 0.00 | 62 | 22.6 |
| 20260905085009 | 76 | 45 | 2.0 | 4.0 | 0.00 | 0.00 | 0.00 | 65 | 22.6 |
| 20260905084009 | 77 | 45 | 2.0 | 5.0 | 0.00 | 0.00 | 0.00 | 66 | 22.5 |
| 20260905083010 | 76 | 292 | 0.0 | 3.0 | 0.00 | 0.00 | 0.00 | 65 | 22.4 |
| 20260905082009 | 75 | 292 | 0.0 | 1.0 | 0.00 | 0.00 | 0.00 | 66 | 22.4 |
| 20260905081009 | 76 | 292 | 0.0 | 1.0 | 0.00 | 0.00 | 0.00 | 67 | 22.4 |
| 20260905080010 | 75 | 292 | 1.0 | 3.0 | 0.00 | 0.00 | 0.00 | 66 | 22.3 |
| 20260905074009 | 74 | 292 | 0.0 | 4.0 | 0.00 | 0.00 | 0.00 | 66 | 22.1 |
| 20260905073009 | 73 | 315 | 0.0 | 2.0 | 0.00 | 0.00 | 0.00 | 66 | 22.1 |
| 20260905071009 | 71 | 270 | 0.0 | 2.0 | 0.00 | 0.00 | 0.00 | 67 | 22.0 |
| 20260905070010 | 69 | 270 | 0.0 | 1.0 | 0.00 | 0.00 | 0.00 | 69 | 21.9 |
| 20260905065009 | 68 | 0 | 0.0 | 0.0 | 0.00 | 0.00 | 0.00 | 71 | 21.8 |
| 20260905064009 | 67 | 0 | 0.0 | 0.0 | 0.00 | 0.00 | 0.00 | 73 | 21.7 |
| 20260905063009 | 66 | 0 | 0.0 | 0.0 | 0.00 | 0.00 | 0.00 | 76 | 21.8 |
| 20260905062009 | 66 | 270 | 0.0 | 1.0 | 0.00 | 0.00 | 0.00 | 76 | 21.7 |
| 20260905061009 | 65 | 0 | 0.0 | 0.0 | 0.00 | 0.00 | 0.00 | 79 | 21.5 |
| 20260905060010 | 64 | 0 | 0.0 | 0.0 | 0.00 | 0.00 | 0.00 | 82 | 21.4 |
| 20260905055009 | 63 | 0 | 0.0 | 0.0 | 0.00 | 0.00 | 0.00 | 82 | 21.2 |
| 20260905054009 | 63 | 0 | 0.0 | 0.0 | 0.00 | 0.00 | 0.00 | 82 | 21.0 |
| 20260905053009 | 62 | 0 | 0.0 | 0.0 | 0.00 | 0.00 | 0.00 | 85 | 20.8 |
| 20260905052009 | 62 | 0 | 0.0 | 0.0 | 0.00 | 0.00 | 0.00 | 83 | 20.7 |
| 20260905051009 | 62 | 0 | 0.0 | 0.0 | 0.00 | 0.00 | 0.00 | 82 | 20.6 |
| 20260905050010 | 63 | 0 | 0.0 | 0.0 | 0.00 | 0.00 | 0.00 | 82 | 20.5 |
| 20260905044009 | 63 | 0 | 0.0 | 0.0 | 0.00 | 0.00 | 0.00 | 83 | 20.3 |
| 20260905043009 | 62 | 0 | 0.0 | 0.0 | 0.00 | 0.00 | 0.00 | 83 | 20.4 |
| 20260905042009 | 62 | 0 | 0.0 | 0.0 | 0.00 | 0.00 | 0.00 | 83 | 20.3 |
| 20260905041009 | 62 | 0 | 0.0 | 0.0 | 0.00 | 0.00 | 0.00 | 83 | 20.2 |